Weather History for PASK - February, 2013

Change the Weather History Date:

Monday, February 18, 2013

  Actual Average Record
Temperature  
Mean Temperature -27 °F -  
Max Temperature -23 °F 5 °F 33 °F (2006)
Min Temperature -31 °F -3 °F -31 °F (2013)
Degree Days  
Heating Degree Days 92    
Moisture  
Dew Point -29 °F    
Average Humidity 96    
Maximum Humidity 100    
Minimum Humidity 91    
Precipitation  
Precipitation 0.00 in - - ()
Sea Level Pressure  
Sea Level Pressure 30.41 in    
Wind  
Wind Speed 10 mph (West)    
Max Wind Speed 15 mph    
Max Gust Speed -    
Visibility 10 miles    
Events      
Averages and records for this station are not official NWS values.
T = Trace of Precipitation, MM = Missing Value Source: NWS Daily Summary

Daily Weather History Graph

Daily Weather History Graph

Search for Another Location

Airport or City:

Trip Planner

Search our weather history database for the weather conditions in past years. The results will help you decide how hot, cold, wet, or windy it might be!

Date:

Astronomy

Feb. 18, 2013 Rise Set
Actual Time 9:35 AM AKST 6:13 PM AKST
Civil Twilight 8:39 AM AKST 7:09 PM AKST
Nautical Twilight 7:38 AM AKST 8:11 PM AKST
Astronomical Twilight 6:37 AM AKST 9:12 PM AKST
Moon 10:27 AM AKST (2/18) 6:03 AM AKST (2/18)
Length of Visible Light 10h 30m
Length of Day
8h 38m
First Quarter, 60% of the Moon is Illuminated
Feb 18
First Quarter
Feb 25
Full
Mar 4
Last Quarter
Mar 11
New
Mar 19
First Quarter

Hourly Weather History & Observations

Time (AKST) Temp. Windchill Dew Point Humidity Pressure Visibility Wind Dir Wind Speed Gust Speed Precip Events Conditions
12:16 AM - - - N/A% 30.41 in 10.0 mi WSW 11.5 mph - N/A   Clear
12:36 AM - - - N/A% 30.41 in 9.0 mi WSW 12.7 mph - N/A   Clear
12:56 AM - - - N/A% 30.42 in 9.0 mi WSW 15.0 mph - N/A   Clear
1:16 AM - - - N/A% 30.41 in 10.0 mi WSW 15.0 mph - N/A   Clear
1:36 AM - - - N/A% 30.41 in 10.0 mi WSW 12.7 mph - N/A   Clear
1:56 AM - - - N/A% 30.42 in 10.0 mi WSW 12.7 mph - N/A   Clear
2:16 AM -23.8 °F -49.8 °F - N/A% 30.43 in 10.0 mi West 15.0 mph - N/A   Clear
2:36 AM - - - N/A% 30.43 in 10.0 mi WSW 13.8 mph - N/A   Clear
3:16 AM - - - N/A% 30.42 in 10.0 mi West 12.7 mph - N/A   Clear
3:36 AM - - - N/A% 30.42 in 10.0 mi West 12.7 mph - N/A   Clear
3:56 AM - - - N/A% 30.42 in 10.0 mi WSW 11.5 mph - N/A   Clear
4:16 AM - - - N/A% 30.42 in 10.0 mi WSW 10.4 mph - N/A   Clear
4:36 AM - - - N/A% 30.42 in 10.0 mi WSW 12.7 mph - N/A   Clear
4:56 AM - - - N/A% 30.42 in 10.0 mi WSW 12.7 mph - N/A   Clear
5:16 AM - - - N/A% 30.41 in 10.0 mi West 12.7 mph - N/A   Clear
5:36 AM -25.6 °F -49.2 °F - N/A% 30.42 in 10.0 mi WSW 11.5 mph - N/A   Clear
5:56 AM -25.6 °F -50.2 °F - N/A% 30.41 in 10.0 mi West 12.7 mph - N/A   Clear
6:16 AM -25.6 °F -49.2 °F - N/A% 30.41 in 10.0 mi WSW 11.5 mph - N/A   Clear
6:36 AM -25.6 °F -48.0 °F - N/A% 30.41 in 10.0 mi West 10.4 mph - N/A   Clear
6:56 AM - - - N/A% 30.41 in 10.0 mi West 12.7 mph - N/A   Clear
7:16 AM - - - N/A% 30.41 in 10.0 mi West 11.5 mph - N/A   Clear
7:36 AM -27.4 °F -50.3 °F - N/A% 30.42 in 10.0 mi WSW 10.4 mph - N/A   Clear
7:56 AM -29.2 °F -51.2 °F - N/A% 30.42 in 10.0 mi West 9.2 mph - N/A   Clear
8:16 AM - - - N/A% 30.43 in 10.0 mi WSW 9.2 mph - N/A   Clear
8:36 AM -29.2 °F -49.7 °F - N/A% 30.42 in 10.0 mi West 8.1 mph - N/A   Clear
8:56 AM -29.2 °F -51.2 °F - N/A% 30.43 in 10.0 mi West 9.2 mph - N/A   Clear
9:16 AM -31.0 °F -51.9 °F - N/A% 30.44 in 9.0 mi West 8.1 mph - N/A   Clear
9:36 AM -31.0 °F -51.9 °F - N/A% 30.44 in 10.0 mi West 8.1 mph - N/A   Clear
9:56 AM -29.2 °F -51.2 °F - N/A% 30.44 in 9.0 mi West 9.2 mph - N/A   Clear
10:16 AM -29.2 °F -51.2 °F - N/A% 30.45 in 10.0 mi West 9.2 mph - N/A   Clear
10:36 AM -29.2 °F -52.5 °F - N/A% 30.45 in 10.0 mi West 10.4 mph - N/A   Clear
10:56 AM -27.4 °F -49.0 °F - N/A% 30.45 in 10.0 mi West 9.2 mph - N/A   Clear
11:16 AM -27.4 °F -49.0 °F - N/A% 30.45 in 10.0 mi West 9.2 mph - N/A   Clear
11:36 AM -27.4 °F -49.0 °F - N/A% 30.45 in 10.0 mi West 9.2 mph - N/A   Clear
11:56 AM -27.4 °F -47.6 °F -29.2 °F 91% 30.44 in 10.0 mi WNW 8.1 mph - N/A   Clear
12:16 PM -27.4 °F -45.9 °F - N/A% 30.44 in 10.0 mi West 6.9 mph - N/A   Clear
12:36 PM -25.6 °F -41.9 °F - N/A% 30.43 in 10.0 mi West 5.8 mph - N/A   Clear
12:56 PM -25.6 °F - - N/A% 30.44 in 10.0 mi Calm Calm - N/A   Clear
1:16 PM -25.6 °F - - N/A% 30.43 in 10.0 mi Calm Calm - N/A   Clear
1:36 PM -25.6 °F - - N/A% 30.43 in 10.0 mi Calm Calm - N/A   Clear
1:56 PM -25.6 °F -39.8 °F - N/A% 30.42 in 10.0 mi ENE 4.6 mph - N/A   Clear
2:16 PM -25.6 °F -43.8 °F - N/A% 30.41 in 10.0 mi East 6.9 mph - N/A   Clear
2:36 PM -27.4 °F -39.2 °F - N/A% 30.41 in 10.0 mi SE 3.5 mph - N/A   Clear
2:56 PM -27.4 °F -39.2 °F - N/A% 30.43 in 10.0 mi East 3.5 mph - N/A   Clear
3:16 PM -27.4 °F -45.9 °F - N/A% 30.41 in 10.0 mi NE 6.9 mph - N/A   Clear
3:36 PM -27.4 °F -47.6 °F - N/A% 30.41 in 9.0 mi ENE 8.1 mph - N/A   Clear
3:56 PM -27.4 °F -44.1 °F - N/A% 30.41 in 10.0 mi East 5.8 mph - N/A   Clear
4:16 PM -29.2 °F -49.7 °F - N/A% 30.40 in 10.0 mi ENE 8.1 mph - N/A   Clear
4:36 PM -29.2 °F -49.7 °F - N/A% 30.38 in 10.0 mi ENE 8.1 mph - N/A   Clear
4:56 PM -29.2 °F -53.7 °F - N/A% 30.36 in 10.0 mi NE 11.5 mph - N/A   Clear
5:16 PM -29.2 °F -44.0 °F - N/A% 30.38 in 10.0 mi ENE 4.6 mph - N/A   Clear
5:36 PM -29.2 °F -44.0 °F - N/A% 30.38 in 10.0 mi NE 4.6 mph - N/A   Clear
5:56 PM -29.2 °F -46.2 °F - N/A% 30.39 in 10.0 mi NE 5.8 mph - N/A   Clear
6:16 PM -29.2 °F - - N/A% 30.39 in 10.0 mi Calm Calm - N/A   Clear
6:36 PM -29.2 °F - - N/A% 30.39 in 10.0 mi Calm Calm - N/A   Clear
6:56 PM -29.2 °F - - N/A% 30.39 in 10.0 mi Calm Calm - N/A   Clear
7:16 PM -31.0 °F - - N/A% 30.38 in 10.0 mi Calm Calm - N/A   Clear
7:36 PM -31.0 °F - - N/A% 30.38 in 10.0 mi Calm Calm - N/A   Clear
7:56 PM -31.0 °F -43.3 °F - N/A% 30.37 in 10.0 mi ENE 3.5 mph - N/A   Clear
8:16 PM -31.0 °F -56.0 °F - N/A% 30.36 in 10.0 mi NE 11.5 mph - N/A   Clear
8:36 PM -29.2 °F -48.1 °F - N/A% 30.36 in 10.0 mi ENE 6.9 mph - N/A   Clear
8:56 PM -31.0 °F -54.7 °F - N/A% 30.37 in 10.0 mi ENE 10.4 mph - N/A   Clear
9:16 PM -29.2 °F -52.5 °F - N/A% 30.37 in 10.0 mi ENE 10.4 mph - N/A   Clear
9:36 PM -29.2 °F -51.2 °F - N/A% 30.37 in 10.0 mi ENE 9.2 mph - N/A   Clear
9:56 PM -29.2 °F -48.1 °F - N/A% 30.36 in 10.0 mi ENE 6.9 mph - N/A   Clear
10:16 PM -29.2 °F -48.1 °F -29.2 °F 100% 30.36 in 5.0 mi ESE 6.9 mph - N/A   Clear
10:36 PM -31.0 °F -43.3 °F - N/A% 30.34 in 10.0 mi East 3.5 mph - N/A   Clear
10:56 PM -31.0 °F -48.4 °F - N/A% 30.34 in 10.0 mi ENE 5.8 mph - N/A   Clear
11:16 PM -31.0 °F -50.3 °F - N/A% 30.33 in 10.0 mi ENE 6.9 mph - N/A   Clear
11:36 PM -29.2 °F -49.7 °F - N/A% 30.34 in 10.0 mi East 8.1 mph - N/A   Clear
11:56 PM -31.0 °F -50.3 °F - N/A% 30.34 in 10.0 mi East 6.9 mph - N/A   Clear